, SD

(GMT )
Rapid City

Weather History for KRAP - February, 2014

Change the Weather History Date:

Monday, February 24, 2014

  Actual Average Record
Temperature  
Mean Temperature 8 °F 29 °F  
Max Temperature 18 °F 42 °F 75 °F (1955)
Min Temperature -2 °F 17 °F -17 °F (2003)
Degree Days  
Heating Degree Days 57 36  
Month to date heating degree days 1085 913  
Since 1 July heating degree days 5430 5069  
Cooling Degree Days 0 0  
Month to date cooling degree days 0 0  
Year to date cooling degree days 0 0  
Moisture  
Dew Point 8 °F    
Average Humidity 82    
Maximum Humidity 92    
Minimum Humidity 72    
Precipitation  
Precipitation 0.06 in 0.02 in 0.25 in (2011)
Month to date precipitation 0.23 0.35  
Year to date precipitation 0.43 0.65  
Snow  
Snow 1.50 in 0.20 in 4.80 in (2011)
Month to date snowfall 5.5 4.7  
Since 1 July snowfall 42.1 22.3  
Snow Depth T in    
Sea Level Pressure  
Sea Level Pressure 30.19 in    
Wind  
Wind Speed 15 mph (NE)    
Max Wind Speed 32 mph    
Max Gust Speed 38 mph    
Visibility 4 miles    
Events Snow    
T = Trace of Precipitation, MM = Missing Value Source: NWS Daily Summary

Daily Weather History Graph

Daily Weather History Graph

Search for Another Location

Airport or City:

Trip Planner

Search our weather history database for the weather conditions in past years. The results will help you decide how hot, cold, wet, or windy it might be!

Date:

Astronomy

Feb. 24, 2014 Rise Set
Actual Time 6:37 AM MST 5:34 PM MST
Civil Twilight 6:08 AM MST 6:03 PM MST
Nautical Twilight 5:34 AM MST 6:36 PM MST
Astronomical Twilight 5:01 AM MST 7:10 PM MST
Moon 2:44 AM MST (2/24) 12:30 PM MST (2/24)
Length of Visible Light 11h 55m
Length of Day
10h 56m
Waning Crescent, 27% of the Moon is Illuminated
Feb 24
Waning Crescent
Mar 1
New
Mar 8
First Quarter
Mar 16
Full
Mar 23
Last Quarter

Hourly Weather History & Observations

Time (MST) Temp. Windchill Dew Point Humidity Pressure Visibility Wind Dir Wind Speed Gust Speed Precip Events Conditions
12:52 AM 17.1 °F 5.0 °F 12.9 °F 84% 30.25 in 6.0 mi SE 10.4 mph - 0.00 in Snow Light Snow
1:07 AM 17.6 °F 4.3 °F 12.2 °F 79% 30.08 in 4.0 mi ESE 12.7 mph - 0.00 in Snow Light Snow
1:31 AM 17.6 °F 2.2 °F 12.2 °F 79% 30.07 in 4.0 mi SE 17.3 mph - 0.00 in Snow Light Snow
1:50 AM 17.6 °F 3.2 °F 12.2 °F 79% 30.07 in 5.0 mi ESE 15.0 mph - 0.00 in Snow Light Snow
1:52 AM 17.1 °F 3.6 °F 12.9 °F 84% 30.22 in 5.0 mi ESE 12.7 mph - 0.00 in Snow Light Snow
2:07 AM 17.6 °F 2.7 °F 12.2 °F 79% 30.05 in 7.0 mi SE 16.1 mph - 0.00 in Snow Light Snow
2:52 AM 16.0 °F 0.6 °F 14.0 °F 92% 30.18 in 6.0 mi SE 16.1 mph - 0.00 in Snow Light Snow
3:10 AM 17.6 °F 2.7 °F 14.0 °F 86% 30.01 in 2.0 mi SE 16.1 mph - 0.00 in Snow Light Snow
3:17 AM 17.6 °F 2.7 °F 14.0 °F 86% 30.01 in 1.8 mi SE 16.1 mph - 0.00 in Snow Light Snow
3:41 AM 17.6 °F 3.7 °F 14.0 °F 86% 30.01 in 2.0 mi SE 13.8 mph - 0.00 in Snow Light Snow
3:52 AM 17.1 °F 3.6 °F 14.0 °F 88% 30.17 in 2.5 mi ESE 12.7 mph - 0.00 in Snow Light Snow
3:59 AM 17.6 °F 3.2 °F 14.0 °F 86% 30.00 in 3.0 mi ESE 15.0 mph - 0.00 in Snow Light Snow
4:08 AM 17.6 °F 3.7 °F 14.0 °F 86% 30.00 in 4.0 mi SE 13.8 mph - 0.00 in Snow Light Snow
4:42 AM 17.6 °F 2.7 °F 14.0 °F 86% 29.98 in 3.0 mi SE 16.1 mph - 0.00 in Snow Light Snow
4:52 AM 17.1 °F 1.0 °F 15.1 °F 92% 30.13 in 3.0 mi SE 18.4 mph - 0.00 in Snow Light Snow
5:15 AM 17.6 °F 3.2 °F 15.8 °F 93% 29.97 in 2.5 mi SE 15.0 mph - 0.00 in Snow Light Snow
5:34 AM 17.6 °F 2.2 °F 15.8 °F 93% 29.97 in 3.0 mi ESE 17.3 mph - 0.00 in Snow Light Snow
5:42 AM 17.6 °F 3.7 °F 15.8 °F 93% 29.97 in 2.5 mi ESE 13.8 mph - 0.00 in Snow Light Snow
5:52 AM 17.1 °F 2.0 °F 15.1 °F 92% 30.13 in 4.0 mi SE 16.1 mph - 0.00 in Snow Light Snow
6:37 AM 17.6 °F 3.7 °F 15.8 °F 93% 29.96 in 1.8 mi ESE 13.8 mph - 0.01 in Snow Light Snow
6:52 AM 17.1 °F 3.0 °F 15.1 °F 92% 30.12 in 1.2 mi ESE 13.8 mph - 0.01 in Snow Light Snow
7:15 AM 17.6 °F 7.3 °F 14.0 °F 86% 29.97 in 1.8 mi ESE 8.1 mph - 0.00 in Snow Light Snow
7:22 AM 17.6 °F 7.3 °F 14.0 °F 86% 29.99 in 2.5 mi ESE 8.1 mph - 0.00 in Snow Light Snow
7:37 AM 17.6 °F 8.2 °F 14.0 °F 86% 29.99 in 3.0 mi East 6.9 mph - 0.00 in Snow Light Snow
7:52 AM 17.1 °F 8.7 °F 14.0 °F 88% 30.16 in 5.0 mi East 5.8 mph - 0.00 in Snow Light Snow
8:31 AM 17.6 °F 6.4 °F 14.0 °F 86% 30.01 in 2.5 mi NE 9.2 mph - 0.00 in Snow Light Snow
8:48 AM 17.6 °F 6.4 °F 14.0 °F 86% 30.02 in 3.0 mi NE 9.2 mph - 0.01 in Snow Light Snow
8:52 AM 17.1 °F 5.0 °F 14.0 °F 88% 30.18 in 3.0 mi NE 10.4 mph - 0.01 in Snow Light Snow
9:01 AM 17.6 °F 6.4 °F 14.0 °F 86% 30.03 in 2.5 mi NE 9.2 mph - 0.00 in Snow Light Snow
9:17 AM 17.6 °F 5.7 °F 14.0 °F 86% 30.03 in 1.8 mi NE 10.4 mph - 0.00 in Snow Light Snow
9:37 AM 17.6 °F 8.2 °F 12.2 °F 79% 30.03 in 1.5 mi NE 6.9 mph - 0.00 in Snow Light Snow
9:43 AM 17.6 °F 6.4 °F 14.0 °F 86% 30.03 in 2.0 mi NE 9.2 mph - 0.00 in Snow Light Snow
9:48 AM 17.6 °F 5.7 °F 14.0 °F 86% 30.03 in 3.0 mi NNE 10.4 mph - 0.00 in Snow Light Snow
9:52 AM 18.0 °F 6.9 °F 12.9 °F 81% 30.19 in 3.0 mi NE 9.2 mph - 0.01 in Snow Light Snow
10:06 AM 17.6 °F 5.0 °F 12.2 °F 79% 30.04 in 2.5 mi NE 11.5 mph - 0.00 in Snow Light Snow
10:13 AM 17.6 °F 4.3 °F 12.2 °F 79% 30.05 in 1.0 mi NNE 12.7 mph - 0.00 in Snow Light Snow
10:35 AM 17.6 °F 2.7 °F 12.2 °F 79% 30.06 in 1.0 mi NE 16.1 mph - 0.00 in Snow Light Snow
10:52 AM 16.0 °F 0.6 °F 12.0 °F 84% 30.23 in 1.0 mi NNE 16.1 mph - 0.00 in Snow Light Snow
10:59 AM 15.8 °F -0.6 °F 10.4 °F 79% 30.07 in 4.0 mi NNE 18.4 mph - 0.00 in Snow Light Snow
11:17 AM 15.8 °F -0.6 °F 10.4 °F 79% 30.09 in 2.0 mi North 18.4 mph - 0.00 in Snow Light Snow
11:27 AM 14.0 °F -2.0 °F 8.6 °F 79% 30.10 in 1.5 mi North 16.1 mph - 0.00 in Snow Light Snow
11:34 AM 12.2 °F -5.3 °F 8.6 °F 85% 30.11 in 1.0 mi North 18.4 mph - 0.00 in Snow Light Snow
11:52 AM 12.0 °F -6.9 °F 7.0 °F 80% 30.30 in 0.5 mi North 21.9 mph - 0.00 in Snow Snow
11:58 AM 12.2 °F -5.8 °F 6.8 °F 79% 30.14 in 1.5 mi North 19.6 mph 26.5 mph 0.00 in Snow Light Snow
12:25 PM 10.4 °F -9.9 °F 3.2 °F 73% 30.17 in 1.8 mi North 24.2 mph 32.2 mph 0.00 in Snow Light Snow
12:32 PM 8.6 °F -12.3 °F 3.2 °F 79% 30.17 in 2.0 mi North 24.2 mph 32.2 mph 0.00 in Snow Light Snow
12:40 PM 8.6 °F -13.1 °F 3.2 °F 79% 30.18 in 1.5 mi North 26.5 mph 33.4 mph 0.00 in Snow Light Snow
12:52 PM 9.0 °F -11.8 °F 3.0 °F 77% 30.37 in 1.8 mi North 24.2 mph 32.2 mph 0.00 in Snow Light Snow
1:05 PM 6.8 °F -16.6 °F 1.4 °F 79% 30.19 in 1.2 mi North 29.9 mph 36.8 mph 0.00 in Snow Light Snow
1:14 PM 6.8 °F -15.9 °F 1.4 °F 79% 30.20 in 2.0 mi North 27.6 mph 38.0 mph 0.00 in Snow Light Snow
1:32 PM 6.8 °F -16.9 °F 1.4 °F 79% 30.19 in 4.0 mi North 31.1 mph 35.7 mph 0.00 in Snow Blowing Snow
1:52 PM 6.1 °F -17.9 °F -0.0 °F 76% 30.40 in 6.0 mi North 31.1 mph 36.8 mph 0.00 in Snow Blowing Snow
2:04 PM 6.8 °F -16.2 °F 1.4 °F 79% 30.21 in 8.0 mi North 28.8 mph 36.8 mph N/A   Mostly Cloudy
2:11 PM 6.8 °F -15.9 °F -0.4 °F 72% 30.21 in 8.0 mi North 27.6 mph 36.8 mph N/A   Mostly Cloudy
2:19 PM 6.8 °F -15.9 °F -0.4 °F 72% 30.22 in 6.0 mi North 27.6 mph 35.7 mph N/A Snow Blowing Snow
2:38 PM 6.8 °F -14.7 °F 1.4 °F 79% 30.24 in 4.0 mi North 24.2 mph 33.4 mph 0.00 in Snow Blowing Snow
2:52 PM 7.0 °F -15.6 °F 1.0 °F 77% 30.44 in 8.0 mi North 27.6 mph 35.7 mph 0.00 in   Mostly Cloudy
3:24 PM 8.6 °F -11.9 °F 1.4 °F 73% 30.26 in 7.0 mi North 23.0 mph 34.5 mph N/A   Mostly Cloudy
3:52 PM 8.1 °F -13.0 °F 1.0 °F 73% 30.46 in 9.0 mi North 24.2 mph 32.2 mph N/A   Mostly Cloudy
4:05 PM 8.6 °F -12.3 °F -0.4 °F 67% 30.28 in 10.0 mi North 24.2 mph 31.1 mph N/A   Scattered Clouds
4:52 PM 6.1 °F -14.8 °F -0.9 °F 73% 30.50 in 10.0 mi NNW 21.9 mph 29.9 mph N/A   Scattered Clouds
5:52 PM 3.9 °F -15.0 °F -4.0 °F 70% 30.53 in 10.0 mi North 16.1 mph 25.3 mph N/A   Clear
6:52 PM 1.9 °F -16.9 °F -5.1 °F 72% 30.55 in 10.0 mi North 15.0 mph - N/A   Clear
7:52 PM 1.0 °F -18.0 °F -6.0 °F 72% 30.53 in 10.0 mi North 15.0 mph - N/A   Clear
8:52 PM 1.0 °F -16.6 °F -6.0 °F 72% 30.54 in 10.0 mi North 12.7 mph - N/A   Clear
9:52 PM -0.9 °F -15.3 °F -7.1 °F 75% 30.53 in 10.0 mi North 8.1 mph - N/A   Clear
10:52 PM -2.0 °F -16.6 °F -8.0 °F 76% 30.52 in 10.0 mi West 8.1 mph - N/A   Clear
11:52 PM 1.9 °F -5.6 °F -4.0 °F 76% 30.51 in 10.0 mi WNW 3.5 mph - N/A   Mostly Cloudy